Location: Capel Gartheli
(52.1833°N, 4.0667°W)
Time: 20:46:55
(UTC+00:00)

Cosmos 1356 Rocket - Pass Details

Date: 18 February 2020
Orbit: 543 x 598 km, 81.2° (Epoch: 03 April)

Event Time Altitude Azimuth Distance (km) Brightness Sun altitude
Exits shadow 05:37:26 38° 261° (W) 867 3.8 -17.4°
Maximum altitude 05:38:10 42° 289° (WNW) 811 3.7 -17.3°
Drops below altitude 10° 05:42:06 10° 1° (N) 1,875 6.1 -16.7°
Sets 05:44:25 0° 9° (N) 2,787 7.1 -16.3°
